Weather observations for the past three days for
Cheboygan, Cheboygan County Airport
Metric (Imperial)
Date Time (edt) Wind (kph) Vis. (km) Weather Sky Cond. Temperature (ºC) Relative Humidity Wind Chill (°C) Heat Index (°C) Pressure Precipitation (cm)
Air Dwpt 6 hour altimeter (cm) sea level (mb) 1 hr 3 hr 6 hr
Max. Min.
06 07:15 W 2 16.09 Fair CLR 9 8 94% 76.56 0.0
06 06:55 SW 4 16.09 Fair CLR 9 8 94% 76.56 0.0
06 06:35 SW 2 16.09 Fair CLR 9 9 100% 76.56 0.0
06 06:15 SW 4 16.09 Fair CLR 9 8 94% 76.56 0.0
06 05:55 W 4 16.09 Fair CLR 10 9 94% 76.53 0.0
06 05:36 SW 4 16.09 Fair CLR 10 9 94% 76.53 0.0
06 05:15 SW 2 16.09 Fair CLR 10 9 94% 76.53 0.0
06 04:55 SW 4 16.09 Fair CLR 10 9 94% 76.5 0.0
06 04:35 W 6 16.09 Fair CLR 10 9 94% 76.48 0.0
06 04:15 SW 4 16.09 Fair CLR 10 9 94% 76.48 0.0
06 03:55 W 6 16.09 Fair CLR 10 10 100% 76.48 0.0
06 03:35 W 2 14.48 Fair CLR 10 9 94% 76.45 0.0
06 03:16 SW 2 16.09 Fair CLR 11 9 88% 76.45 0.0
06 02:55 W 4 16.09 Fair CLR 11 10 94% 76.48 0.0
06 02:35 W 4 16.09 Fair CLR 11 10 94% 76.48 0.0
06 02:15 W 4 16.09 Fair CLR 11 10 94% 76.45 0.0
06 01:55 W 2 16.09 Fair CLR 12 10 20.7 11.2 88% 76.48 0.0
06 01:35 SW 2 16.09 Fair CLR 11 10 94% 76.45 0.0
06 01:15 W 6 16.09 Fair CLR 13 12 94% 76.45 0.0
06 00:56 W 4 16.09 Fair CLR 13 12 94% 76.45 0.0
06 00:36 W 6 16.09 Fair CLR 13 12 94% 76.45 0.0
06 00:15 W 6 16.09 Fair CLR 14 13 94% 76.43 0.0
05 23:55 W 4 16.09 Fair CLR 14 12 88% 76.43 0.0
05 23:35 W 6 16.09 Fair CLR 13 11 88% 76.43 0.0
05 23:15 W 6 16.09 Fair CLR 12 11 94% 76.4 0.0
05 22:56 W 4 16.09 Fair CLR 14 12 88% 76.4 0.0
05 22:35 W 4 16.09 Fair CLR 14 12 88% 76.38 0.0
05 22:15 W 4 16.09 Fair CLR 15 13 88% 76.4 0.0
05 21:55 W 6 16.09 Fair CLR 13 12 94% 76.4 0.0
05 21:35 SW 4 16.09 Fair CLR 15 13 88% 76.38 0.0
05 21:15 SW 4 16.09 Fair CLR 15 13 88% 76.38 0.0
05 20:55 S 4 16.09 Fair CLR 16 13 83% 76.38 0.0
05 20:36 Calm 16.09 Fair CLR 16 13 83% 76.38 0.0
05 20:15 W 6 16.09 Fair CLR 18 14 78% 76.35 0.0
05 19:55 SW 2 16.09 Fair CLR 20 14 24.3 20.4 69% 76.35 0.0
05 19:35 E 6 16.09 Fair CLR 21 13 60% 76.35 0.0
05 19:15 E 7 16.09 Fair CLR 22 13 57% 76.35 0.0
05 18:55 E 11 16.09 Fair CLR 23 13 53% 76.35 0.0
05 18:35 E 9 16.09 Fair CLR 23 12 50% 76.35 0.0
05 18:16 NE 9 16.09 Fair CLR 23 13 53% 76.35 0.0
05 17:55 E 9 16.09 Fair CLR 24 12 47% 25 76.33 0.0
05 17:35 Vrbl 9 16.09 Fair CLR 24 12 47% 25 76.33 0.0
05 17:15 Vrbl 7 16.09 Fair CLR 24 12 47% 25 76.3 0.0
05 16:55 E 7 16.09 Fair CLR 24 12 47% 25 76.33 0.0
05 16:15 Vrbl 6 16.09 Fair CLR 24 12 47% 25 76.33 0.0
05 15:56 NE 9 16.09 Fair CLR 24 12 47% 25 76.33 0.0
05 13:55 E 15 16.09 Fair CLR 23 14 22.9 12 57% 76.4 0.0
05 13:36 NE 17 16.09 Fair CLR 23 16 65% 76.4 0.0
05 13:15 NE 15 16.09 Fair CLR 22 15 65% 76.4 0.0
05 12:55 NE 13 16.09 Fair CLR 22 16 69% 76.4 0.0
05 12:35 NE 15 16.09 Fair CLR 22 16 69% 76.4 0.0
05 12:15 NE 17 16.09 Fair CLR 21 16 73% 76.43 0.0
05 11:55 NE 13 16.09 Fair CLR 21 16 73% 76.4 0.0
05 11:35 NE 15 16.09 Fair CLR 21 16 73% 76.4 0.0
05 11:16 NE 17 16.09 Fair CLR 21 16 73% 76.4 0.0
05 10:55 NE 17 16.09 Fair CLR 20 16 78% 76.38 0.0
05 10:35 NE 17 16.09 Fair CLR 20 16 78% 76.35 0.0
05 10:15 NE 17 16.09 Fair CLR 20 16 78% 76.35 0.0
05 09:55 E 15 16.09 Fair CLR 20 16 78% 76.35 0.0
05 09:15 E 15 16.09 Fair CLR 19 16 83% 76.35 0.0
05 08:56 NE 13 16.09 Fair CLR 19 16 83% 76.35 0.0
05 08:35 E 9 16.09 Fair CLR 18 16 88% 76.33 0.0
05 08:15 NE 6 16.09 Fair CLR 16 15 94% 76.33 0.0
05 07:55 NE 4 1.21 Fog/Mist VV005 13 12 13.9 10.4 94% 76.33 0.0
05 07:35 W 2 0.80 Fog VV005 12 11 94% 76.3 0.0
05 07:15 W 2 11.27 Fog/Mist CLR 12 11 94% 76.28 0.0
05 06:55 NW 4 11.27 Fog/Mist CLR 12 11 94% 76.3 0.0
05 06:36 NW 2 16.09 Fair CLR 11 11 100% 76.3 0.0
05 06:15 W 4 1.21 Fog/Mist VV005 11 11 100% 76.28 0.0
05 05:55 W 4 0.80 Fog VV005 11 11 100% 76.25 0.0
05 05:35 W 6 0.40 Fog VV002 12 11 94% 76.28 0.0
05 05:15 W 2 3.22 Fog/Mist CLR 12 11 94% 76.25 0.0
05 04:55 W 6 16.09 Fair CLR 12 12 100% 76.28 0.0
05 04:35 W 4 16.09 A Few Clouds FEW001 12 12 100% 76.25 0.0
05 04:16 NW 2 16.09 Partly Cloudy SCT001 12 12 100% 76.25 0.0
05 03:55 NW 4 9.66 Fog/Mist CLR 12 11 94% 76.25 0.0
05 03:35 SW 6 16.09 Fair CLR 13 12 94% 76.25 0.0
05 03:15 SW 4 16.09 Fair CLR 13 12 94% 76.25 0.0
05 02:55 W 4 8.05 Fog/Mist CLR 12 11 94% 76.23 0.0
05 02:35 SW 4 16.09 Fair CLR 13 13 100% 76.23 0.0
05 02:15 SW 2 9.66 Fair CLR 13 13 100% 76.25 0.0
05 01:56 W 4 16.09 Fair CLR 13 13 100% 76.25 0.0
05 01:35 NW 6 2.41 Fog/Mist SCT070 13 12 94% 76.25 0.0
05 01:15 SW 2 16.09 Mostly Cloudy BKN070 14 14 100% 76.25 0.0
05 00:55 NW 4 1.21 Fog/Mist BKN070 14 13 94% 76.25 0.0
05 00:35 S 4 16.09 Fair CLR 15 15 100% 76.25 0.0
05 00:15 SW 2 4.02 Fog/Mist CLR 16 15 94% 76.25 0.0
04 23:55 SE 2 0.40 Fog VV002 16 15 94% 76.25 0.0
04 23:36 NE 4 0.80 Fog VV005 14 14 100% 76.25 0.0
04 23:15 SE 4 2.01 Fog/Mist SCT075 17 16 94% 76.25 0.0
04 22:55 E 4 0.80 Fog OVC075 17 16 94% 76.25 0.0
04 22:15 NE 6 16.09 Mostly Cloudy SCT004 BKN075 17 16 94% 76.25 0.0
04 21:55 E 6 16.09 Overcast BKN004 OVC075 18 17 94% 76.25 0.0
04 21:35 E 9 16.09 Overcast BKN004 OVC065 18 17 94% 76.25 0.0
04 21:16 E 11 16.09 Overcast BKN004 OVC065 18 17 94% 76.23 0.0
04 20:55 NE 7 16.09 Overcast FEW004 OVC065 19 17 88% 76.23 0.0
04 20:35 E 7 16.09 Overcast BKN065 OVC085 19 17 88% 76.2 0.0
04 20:15 E 9 16.09 Overcast OVC065 19 17 88% 76.2 0.0
04 19:55 E 7 16.09 Mostly Cloudy BKN065 19 17 21.9 18.8 88% 76.2 0.0
04 19:35 E 9 16.09 Partly Cloudy SCT075 SCT080 19 17 88% 76.2 0.0
04 19:15 NE 11 16.09 Overcast OVC075 20 18 88% 76.2 0.0
04 18:56 NE 9 16.09 Overcast OVC075 20 18 88% 76.17 0.0
04 18:35 NE 9 16.09 Overcast FEW043 OVC060 20 17 83% 76.17 0.0
04 18:15 E 6 16.09 Overcast FEW043 OVC060 21 17 78% 76.17 0.0
04 17:55 E 9 16.09 Light Rain OVC060 21 17 78% 76.15 0.0
04 17:35 E 13 16.09 Overcast OVC060 21 17 78% 76.15 0.0
04 17:15 E 9 16.09 Overcast OVC060 21 16 73% 76.15 0.0
04 16:55 E 11 16.09 Overcast OVC060 21 16 73% 76.15 0.0
04 16:36 E 11 16.09 Overcast OVC060 22 16 69% 76.15 0.0
04 16:15 E 9 16.09 Overcast OVC060 22 17 73% 76.17 0.0
04 15:55 E 17 16.09 Overcast OVC060 22 17 73% 76.15 0.0
04 15:35 NE 17 16.09 Overcast OVC065 21 17 78% 76.17 0.0
04 15:15 NE 19 16.09 Overcast OVC070 21 17 78% 76.17 0.0
04 14:55 NE 19 16.09 Overcast OVC070 21 17 78% 76.17 0.0
04 14:35 E 22 16.09 Overcast FEW042 OVC060 21 17 78% 76.17 0.0
04 14:16 NE 22 16.09 Overcast SCT042 OVC060 20 17 83% 76.2 0.0
04 13:55 E 20 16.09 Overcast FEW042 OVC060 20 17 21.2 15.8 83% 76.2 0.0
04 13:35 NE 17 16.09 Overcast SCT050 OVC055 20 17 83% 76.2 0.0
04 13:15 E 15 16.09 Overcast OVC046 20 17 83% 76.2 0.0
04 12:55 NE 15 16.09 Mostly Cloudy BKN044 21 17 78% 76.2 0.0
04 12:35 E 19 16.09 A Few Clouds FEW050 21 17 78% 76.15 0.0
04 12:15 E 20 16.09 Mostly Cloudy BKN050 21 17 78% 76.17 0.0
04 11:56 NE 17 16.09 Overcast OVC050 20 17 83% 76.2 0.0
04 11:35 E 9 16.09 Mostly Cloudy BKN050 BKN055 21 17 78% 76.23 0.0
04 11:15 E 9 16.09 Mostly Cloudy BKN050 20 17 83% 76.23 0.0
04 10:55 S 6 16.09 Mostly Cloudy FEW006 BKN050 BKN065 19 17 88% 76.25 0.0
04 10:35 SE 7 16.09 Partly Cloudy SCT004 19 17 88% 76.25 0.0
04 10:15 E 11 16.09 Partly Cloudy SCT004 SCT070 19 17 88% 76.23 0.0
04 09:55 E 7 16.09 Partly Cloudy FEW006 SCT070 18 17 94% 76.2 0.0
04 09:36 E 4 16.09 Overcast FEW006 FEW060 OVC070 18 16 88% 76.2 0.0
04 09:15 SE 2 16.09 Overcast FEW008 BKN060 OVC080 17 16 94% 76.2 0.0
04 08:55 SE 4 16.09 Overcast FEW070 OVC090 17 16 94% 76.17 0.0
04 08:35 SE 4 11.27 Light Rain Fog/Mist FEW060 SCT070 OVC090 16 16 100% 76.17 0.0
04 08:15 SW 6 16.09 Overcast OVC090 16 15 94% 76.2 0.0
04 07:55 SE 4 16.09 Overcast OVC100 16 15 15.9 11.9 94% 76.15 0.0 0.13
04 07:35 E 6 9.66 Light Rain Fog/Mist BKN110 16 15 94% 76.15 0.0
04 07:16 E 6 6.44 Light Rain Fog/Mist FEW070 SCT090 BKN110 16 15 94% 76.17 0.0
04 06:55 Calm 9.66 Light Rain BKN060 BKN090 OVC110 16 15 94% 76.2 0.0 0.03
04 06:35 W 11 16.09 Light Rain OVC060 15 14 94% 76.25 0.0
04 06:15 SW 6 16.09 Overcast BKN060 OVC100 15 14 94% 76.2 0.0
04 05:55 W 6 16.09 Mostly Cloudy BKN100 14 13 94% 76.17 0.0
04 05:35 S 4 16.09 Fair CLR 14 13 94% 76.15 0.0
04 05:15 S 2 16.09 A Few Clouds FEW110 13 12 94% 76.12 0.0
04 04:56 NE 6 16.09 Mostly Cloudy BKN110 14 12 88% 76.12 0.0
04 04:35 E 4 16.09 A Few Clouds FEW110 13 12 94% 76.1 0.0
04 04:15 Calm 16.09 Fair CLR 13 12 94% 76.12 0.0
04 03:55 N 2 16.09 Partly Cloudy SCT100 13 12 94% 76.12 0.0
04 03:35 Calm 16.09 Mostly Cloudy BKN100 14 12 88% 76.12 0.0
04 03:15 SW 6 16.09 A Few Clouds FEW100 13 12 94% 76.12 0.0
04 02:55 Calm 16.09 Fair CLR 12 11 94% 76.12 0.0
04 02:36 Calm 16.09 Fair CLR 13 11 88% 76.15 0.0
04 02:15 SW 6 16.09 Fair CLR 13 11 88% 76.17 0.0
04 01:55 W 4 16.09 Fair CLR 13 12 20.8 12.9 94% 76.2 0.0
04 01:35 SW 2 16.09 Fair CLR 13 12 94% 76.2 0.0
04 01:15 SW 2 16.09 Fair CLR 13 12 94% 76.2 0.0
04 00:55 SW 4 16.09 Fair CLR 14 12 88% 76.2 0.0
04 00:35 Calm 16.09 Fair CLR 14 12 88% 76.2 0.0
04 00:16 W 4 16.09 Fair CLR 14 12 88% 76.2 0.0
03 23:55 SW 4 16.09 Fair CLR 14 13 94% 76.2 0.0
03 23:35 SW 4 16.09 Fair CLR 15 13 88% 76.2 0.0
03 23:15 SW 4 16.09 Fair CLR 14 13 94% 76.17 0.0
03 22:55 W 4 16.09 Fair CLR 14 13 94% 76.17 0.0
03 22:35 W 4 16.09 Fair CLR 15 13 88% 76.17 0.0
03 22:15 W 4 16.09 Fair CLR 16 14 88% 76.15 0.0
03 21:55 W 4 16.09 Fair CLR 16 14 88% 76.15 0.0
03 21:36 W 2 16.09 Fair CLR 16 14 88% 76.15 0.0
03 21:16 SW 2 16.09 Fair CLR 16 13 83% 76.12 0.0
03 20:55 SW 2 16.09 Fair CLR 17 14 83% 76.1 0.0
03 20:35 S 6 16.09 Fair CLR 18 14 78% 76.1 0.0
03 20:15 NE 2 16.09 Fair CLR 18 14 78% 76.07 0.0
03 19:55 S 6 16.09 Fair CLR 21 14 25.2 20.7 64% 76.07 0.0
03 19:35 SE 4 16.09 Fair CLR 21 14 64% 76.07 0.0
03 19:16 NE 7 16.09 Fair CLR 22 13 57% 76.05 0.0
03 18:55 E 7 16.09 Fair CLR 23 13 53% 76.02 0.0
03 18:35 NE 13 16.09 Fair CLR 24 12 47% 25 76 0.0
03 18:15 NE 9 16.09 Fair CLR 24 12 47% 25 76 0.0
03 17:55 NE 7 16.09 Fair CLR 25 12 44% 26 75.97 0.0
03 17:35 NE 11 16.09 Fair CLR 24 13 50% 25 76 0.0
03 17:15 NE 13 16.09 Fair CLR 25 13 47% 26 76.02 0.0
03 16:56 E 6 16.09 Fair CLR 25 13 47% 26 76.05 0.0
03 16:35 E 9 16.09 A Few Clouds FEW110 25 13 47% 26 76.05 0.0
03 16:15 NE 11 16.09 Partly Cloudy SCT100 24 14 54% 25 76.07 0.0
03 15:55 E 6 16.09 A Few Clouds FEW100 24 13 50% 25 76.1 0.0
03 15:35 Vrbl 6 16.09 Partly Cloudy SCT100 24 13 50% 25 76.12 0.0
03 15:15 Vrbl 4 16.09 Mostly Cloudy BKN095 24 13 50% 25 76.15 0.0
03 14:56 Vrbl 4 16.09 Overcast OVC095 24 13 50% 25 76.2 0.0
03 14:35 W 6 14.48 Mostly Cloudy BKN095 24 12 47% 25 76.17 0.0
03 14:15 Calm 16.09 Fair CLR 24 12 47% 25 76.17 0.0
03 13:55 Vrbl 2 16.09 Fair CLR 23 12 23.9 15.7 50% 76.17 0.0
03 13:35 Vrbl 4 16.09 Fair CLR 23 13 53% 76.15 0.0
03 13:15 E 7 16.09 Fair CLR 23 13 53% 76.12 0.0
03 12:55 Vrbl 9 16.09 Fair CLR 23 14 57% 76.1 0.0
03 12:36 N 7 16.09 Fair CLR 23 14 57% 76.1 0.0
03 12:15 Vrbl 2 16.09 Fair CLR 22 14 61% 76.12 0.0
03 11:55 Vrbl 4 16.09 Fair CLR 22 14 61% 76.12 0.0
03 11:35 N 6 16.09 Fair CLR 21 14 64% 76.12 0.0
03 11:15 Vrbl 2 16.09 Fair CLR 21 14 64% 76.15 0.0
03 10:55 NE 7 16.09 Fair CLR 21 15 69% 76.12 0.0
03 10:35 N 11 16.09 Fair CLR 21 14 64% 76.12 0.0
03 10:16 NE 7 16.09 Fair CLR 21 14 64% 76.12 0.0
03 09:55 N 4 16.09 Fair CLR 21 14 64% 76.12 0.0
03 09:35 Vrbl 2 16.09 Fair CLR 20 14 69% 76.12 0.0
03 09:15 N 6 16.09 Fair CLR 19 15 78% 76.12 0.0
03 08:55 SW 4 16.09 A Few Clouds FEW043 19 16 83% 76.15 0.0
03 08:35 NE 4 16.09 Partly Cloudy SCT060 17 16 94% 76.1 0.0
03 08:15 SW 4 16.09 Overcast OVC060 17 15 88% 76.12 0.0
03 07:56 SW 6 16.09 Mostly Cloudy BKN060 16 15 94% 76.12 0.0
03 07:35 S 4 16.09 Partly Cloudy SCT050 SCT065 15 15 100% 76.1 0.0
Date Time (edt) Wind (kph) Vis. (km) Weather Sky Cond. Air Dwpt Max. Min. Relative Humidity Wind Chill (°C) Heat Index (°C) altimeter (cm) sea level (mb) 1 hr 3 hr 6 hr
6 hour
Temperature (ºC) Pressure Precipitation (cm)